TITAN 3C TRANSTAGE DEB, 1684

Orbit data source: Space-Track

TITAN 3C TRANSTAGE DEB, 1684 is space debris in LEO originally from a launch on Fri, 15 Oct 1965 UTC launched from the Air Force Eastern Test Range (AFETR). Debris objects in space refer to the collection of defunct objects orbiting the Earth. Examples of debris include non-operational satellites, rocket bodies, and fragments generated from explosions, collisions, or faulty payload assembly.

Loading next visibility...
Identifier
1684, 1965-082AX
Orbit
LEO
Last TLE update
20 hours ago
Origin
Manufacturer
Unknown
Mission
Spacecraft
Bus & Motor
Unknown
Mass
Unknown
Launch date (UTC)
1965-10-15 (60 years ago)
Launch vehicle
Unknown
Launch site
Air Force Eastern Test Range (AFETR)
Object type
Payload
Rocket body
Debris
Shape & HBR
Unknown
Radar Cross Section
1.200 m², Large (>1 m²)

Expand to show TLE details & history

TLE from 20 hours ago
0 TITAN 3C TRANSTAGE DEB
1 01684U 65082AX  25128.99890120  .00003028  00000-0  80766-3 0  9999
2 01684  32.2144 321.1410 0169929 157.0169 203.8181 14.38918856 84259
Epoch: 2025-05-08T23:58Z
Definitive object data (Epoch: 2025-05-08T23:58:25.063Z)
Latitude
-0.00004°
Longitude
94.47516°
Altitude
872.046 km
Speed
7.361 km/s
True Right ascension
21h 24m 33s
True Declination
0° 00' 00"
Sunlit
Object was in daylight at TLE epoch
Visualization TLE readout
Latitude
19.95043°
Longitude
124.65482°
Altitude
827.938 km
Speed
7.408 km/s
Apparent Right ascension
20h 40m 59s
Apparent Declination
-12° 48' 27"
Sunlit
Object is in daylight
Visualization observer readout
Local Sidereal Time
04:19:36
Azimuth
275.862° WNW
Elevation
-27.016°
Doppler factor
1
Orbital elements
Apogee altitude
887.012 km
Perigee altitude
644.226 km
Semi-major axis
7,143.756 km
Eccentricity
0.0169929
Inclination
32.2144°
RAAN
321.141°
Arg. of periapsis
157.0169°
True anomaly
203.04676°
Mean anomaly
203.8181°
Eccentric anomaly
203.43095°
Mean motion
3.59462 °/min
BSTAR
0.00080766
Orbital period
100.15 mins
Loading maneuver chart data...
Loading SW <> Apogee altitude chart data...

TITAN 3C TRANSTAGE DEB Visibility forecast

Observer location: undefined°, undefined°

Span
Click to sort rows by Start time (UTC) header in descending order
Start Az.
Max El. time (UTC)
Max El. Az.
Max El.
End time (UTC)
End Az.
7 mins2025-05-09 20:23:31.187Z248.162° W2025-05-09 20:27:31.187Z191.8° SSW24.202°2025-05-09 20:30:31.187Z144.86° SSE
6 mins2025-05-10 16:11:31.187Z198.735° SSW2025-05-10 16:14:31.187Z156.063° SSE21.712°2025-05-10 16:17:31.187Z117.353° SE
7 mins2025-05-10 17:56:31.187Z230.411° WSW2025-05-10 17:59:31.187Z182.055° SSW29.887°2025-05-10 18:03:31.187Z117.111° SE
7 mins2025-05-10 19:42:31.187Z238.453° WSW2025-05-10 19:45:31.187Z187.433° SSW26.151°2025-05-10 19:49:31.187Z132.603° SE
|